Tracking 20941 objects as of 2-Jul-2020
HD Live streaming from Space Station
objects crossing your sky now

ATLAS 41E DEB

Track ATLAS 41E DEB now!
10-day predictions


NORAD ID: 15615
Int'l Code: 1985-021E
Perigee: 711.7 km
Apogee: 777.2 km
Inclination: 107.8 °
Period: 99.6 minutes
Semi major axis: 7115 km
RCS: 0.0182 m2 (small)
Launch date: March 13, 1985
Source: United States (US)
Launch site: AIR FORCE WESTERN TEST RANGE (AFWTR)

Note: This is SATELLITE DEBRIS
aabbcc
Your satellite tracking list
Your tracking list is empty




NASA's NSSDC Master Catalog

Two Line Element Set (TLE):
1 15615U 85021E   20184.14169306  .00000002  00000-0  39269-4 0  9994
2 15615 107.8374  56.6688 0046019 303.8036 218.0922 14.46441470853366
Source of the keplerian elements: AFSPC